Location: Castrojimeno
(41.3966°N, 3.8473°W)
Time: 21:25:43
(UTC+00:00)

Okean-O - Pass Details

Date: 15 May 2026
Orbit: 627 x 629 km, 97.9° (Epoch: 10 June)

Event Time Altitude Azimuth Distance (km) Brightness Sun altitude
Exits shadow 21:52:17 21° 217° (SW) 1,421 4.2 -21.5°
Maximum altitude 21:54:23 31° 263° (W) 1,099 4.0 -21.7°
Drops below altitude 10° 21:58:18 10° 327° (NNW) 2,013 6.3 -22.1°
Sets 22:00:42 0° 337° (NNW) 2,925 7.4 -22.4°
